Wind_Speed
60 60 56 57 58 63 64 68 67 71 74 74 76 76 74 62 53 50 43 37 33 32 33 33 33 34 34 33 35 39 44 46 52 55 57 63 69 67 65 65 66 65 61
64 59 59 60 62 66 70 70 72 74 76 76 75 75 66 50 46 39 33 31 29 29 31 30 27 29 33 33 31 32 34 37 40 43 52 57 60 63 71 71 70 71 66
65 66 65 66 66 70 72 76 72 77 74 76 75 63 48 44 38 30 30 31 32 31 32 30 29 28 27 27 27 29 29 31 34 40 43 45 50 58 61 65 70 74 71
71 70 71 71 72 72 74 68 72 76 75 74 64 51 44 37 30 30 31 33 30 28 28 28 28 29 28 28 28 27 28 27 28 31 34 39 43 45 49 56 61 66 76
72 70 72 73 72 68 66 61 72 70 73 64 54 46 35 30 30 30 32 28 26 25 23 22 22 23 26 27 28 27 29 31 30 29 33 33 36 42 44 47 50 56 62
75 75 76 71 68 67 58 70 67 71 68 55 46 36 29 28 30 32 29 27 26 25 22 23 24 24 23 25 25 26 26 26 26 27 28 30 32 35 37 41 44 47 49
75 75 68 66 62 60 56 65 66 66 55 45 37 29 28 30 31 29 25 24 23 24 25 24 25 26 27 27 27 28 30 31 29 29 29 30 29 30 33 34 39 44 47
68 66 59 56 58 55 63 59 63 56 45 36 32 29 29 32 30 25 24 23 26 28 26 27 27 30 30 31 32 32 33 34 34 34 34 34 34 34 34 34 36 39 42
63 58 55 51 52 54 56 62 53 46 36 31 31 32 32 33 29 28 27 25 25 26 29 29 31 31 33 35 36 37 37 37 38 39 40 40 40 39 40 41 41 39 41
61 52 51 51 53 53 56 52 46 39 31 31 33 35 35 29 29 26 26 28 29 30 31 32 34 35 36 36 37 39 41 41 43 44 45 45 44 44 45 47 47 46 47
52 48 47 50 55 55 47 46 39 35 33 33 36 34 30 29 28 28 30 32 32 34 37 37 38 40 41 42 41 40 40 42 44 46 47 46 46 48 51 52 52 53 53
45 52 56 60 63 50 43 38 34 34 35 37 35 31 30 29 31 32 33 35 36 39 41 44 44 43 43 41 41 42 44 47 46 46 45 46 48 48 49 52 55 58 59
50 55 58 63 54 44 39 37 36 36 38 36 32 31 32 32 33 35 36 38 40 43 45 46 42 40 39 42 43 46 48 52 52 53 54 54 55 54 56 54 55 59 63
51 55 55 51 45 40 37 38 38 39 38 33 33 34 33 34 36 37 39 41 44 46 46 46 41 41 41 44 50 53 56 59 59 59 59 58 59 60 60 61 62 61 62
51 48 46 43 39 38 39 40 40 38 35 33 34 34 34 36 38 39 40 44 46 45 40 38 40 42 47 50 53 59 62 63 63 61 62 62 65 66 68 69 69 69 70
45 41 40 41 41 40 41 41 37 35 34 34 35 35 36 38 38 41 43 42 41 41 42 44 45 48 51 54 60 63 64 63 60 61 61 66 70 71 73 75 77 78 79
39 41 42 44 42 41 40 36 34 33 34 36 35 37 39 40 42 44 46 42 41 40 44 47 50 52 57 58 61 60 61 62 63 66 68 70 73 77 78 81 85 87 89
41 41 43 43 40 38 36 36 34 34 36 35 37 40 41 43 45 48 47 47 46 45 47 50 54 55 55 58 62 63 64 68 71 71 74 78 82 84 87 91 98 102 101
42 43 42 41 39 36 36 35 34 35 36 38 40 42 43 46 48 48 47 47 45 46 47 51 52 56 62 64 66 69 68 71 74 78 82 86 91 94 97 101 106 110 116
44 43 43 41 36 34 34 32 33 35 38 40 41 43 45 47 45 46 44 43 46 49 49 54 57 57 58 59 63 68 70 73 77 83 90 95 98 102 106 111 116 122 125
47 45 45 39 34 32 31 32 34 35 38 40 42 43 45 45 44 41 43 45 48 51 52 53 55 60 61 63 67 71 76 80 82 88 96 101 105 109 116 120 126 127 123
52 52 48 38 33 32 32 31 33 35 37 39 40 41 40 39 39 42 44 46 49 48 52 56 59 64 68 70 73 75 78 83 87 93 101 108 112 117 124 128 127 120 117
54 53 46 37 33 32 30 32 32 35 36 37 37 38 36 38 41 44 45 47 52 56 59 62 67 70 74 78 81 83 86 89 90 97 103 112 118 125 130 129 119 115 112
56 52 41 34 32 31 30 31 33 36 36 37 38 35 39 41 43 45 49 53 58 61 65 69 73 76 79 82 87 92 96 100 102 101 107 119 126 133 127 122 113 107 100
44 39 34 31 31 32 32 33 35 36 36 36 37 40 41 44 47 50 55 60 64 68 72 75 78 81 85 89 93 98 102 108 114 117 114 122 132 136 131 117 106 97 89
35 33 34 33 34 34 35 36 37 37 37 39 40 42 45 47 50 55 60 64 68 73 77 81 84 86 90 95 99 105 109 114 117 124 129 132 139 137 126 108 98 89 80
Wind_Direction
273 278 279 278 280 284 288 292 296 296 298 299 306 307 306 304 298 295 295 292 298 296 297 296 294 290 289 286 280 276 270 265 260 257 255 254 249 241 244 247 251 251 249
272 277 278 280 281 286 288 292 293 294 297 304 305 306 304 296 295 292 291 294 295 292 290 286 284 283 281 280 279 279 278 275 270 262 258 255 253 253 250 249 249 249 252
273 276 276 279 283 287 291 289 289 293 302 304 308 303 295 293 288 287 290 292 291 290 290 289 287 284 283 279 283 276 278 273 277 273 268 261 258 255 253 253 251 245 245
274 275 275 280 286 286 285 290 293 300 304 306 306 296 291 286 283 287 288 292 296 295 295 294 293 288 285 286 285 283 279 275 279 270 270 269 264 260 257 255 253 250 247
274 275 278 280 283 287 288 293 295 302 303 304 298 292 283 280 282 283 289 296 296 300 305 304 302 299 298 293 293 289 286 280 275 268 264 264 267 268 265 261 259 255 251
275 275 277 282 285 285 289 292 297 301 302 295 291 282 274 278 282 285 290 290 294 294 307 310 311 308 307 308 303 297 294 294 288 288 287 276 272 260 262 262 264 262 256
271 275 279 280 282 284 287 292 299 300 293 288 282 271 274 278 283 287 289 292 297 300 302 307 307 304 306 307 303 299 301 298 297 294 295 292 285 279 265 263 260 261 260
273 274 279 278 283 285 289 293 297 293 285 280 268 270 277 278 281 288 290 291 294 296 302 303 305 304 301 299 298 298 298 299 298 297 295 294 290 286 285 277 269 258 256
273 277 272 278 279 280 290 294 291 283 275 268 268 272 281 278 282 286 288 287 289 293 294 298 301 301 302 299 298 298 297 297 296 296 295 293 289 286 284 283 279 273 266
271 269 271 267 274 283 287 285 280 273 263 268 274 274 276 279 277 283 290 293 292 293 294 297 296 298 296 300 302 302 300 298 299 298 298 295 293 291 290 287 280 276 273
265 260 268 276 277 282 279 276 270 260 263 272 270 272 271 274 281 284 285 287 291 291 295 297 299 299 301 303 304 304 304 304 299 295 295 295 294 293 294 289 281 277 272
263 267 266 266 275 276 270 266 260 258 266 266 267 267 271 271 278 282 287 290 292 294 294 295 299 300 301 303 304 304 300 302 297 294 293 292 291 291 293 289 282 279 276
255 259 262 268 273 267 263 261 259 265 267 265 265 266 269 271 280 284 287 291 292 295 296 300 304 305 303 301 302 301 302 302 299 296 290 289 291 290 290 287 283 277 274
262 264 267 268 263 260 260 263 266 266 262 264 265 267 267 276 279 283 286 289 292 296 297 297 299 300 300 302 301 299 299 300 298 296 294 291 290 287 286 285 283 280 277
263 262 262 261 261 261 265 265 262 262 260 264 263 264 270 273 278 283 289 292 294 293 294 297 297 297 300 297 298 300 300 298 295 294 291 291 293 292 291 289 288 285 279
254 257 258 260 260 261 263 263 264 264 262 262 261 265 267 273 277 282 291 298 297 293 290 293 299 300 299 296 298 300 298 297 295 297 296 296 296 296 295 292 291 289 285
252 259 259 260 262 264 261 262 264 265 261 261 264 266 269 274 277 285 295 293 292 293 296 298 298 299 301 304 304 304 302 300 298 297 301 301 300 299 298 297 295 293 289
254 258 258 258 259 264 263 260 261 262 263 265 266 269 271 274 282 289 292 293 293 295 298 300 300 302 302 303 305 305 301 300 303 305 306 305 303 302 301 301 301 298 293
254 254 257 259 260 262 262 258 262 265 266 264 267 269 276 281 286 290 293 293 298 300 302 303 304 303 303 306 305 306 307 308 311 312 311 310 310 308 306 303 301 299 297
260 260 260 259 259 259 259 259 263 264 266 268 271 275 278 284 288 290 293 296 298 300 302 305 307 309 310 311 313 314 314 313 314 315 315 314 310 309 306 304 302 300 298
265 261 257 257 255 258 256 257 261 265 267 270 274 278 281 285 290 291 294 299 300 302 306 310 311 312 313 316 317 319 319 318 318 317 316 313 313 309 307 304 302 300 297
264 261 256 252 254 255 255 258 263 267 271 273 277 280 285 287 288 291 296 299 303 305 308 310 312 313 314 317 318 316 317 317 320 318 316 315 313 310 307 308 305 303 299
258 255 253 251 248 250 253 258 263 267 273 276 278 280 283 285 292 293 296 299 305 308 310 312 313 314 314 315 316 317 319 318 318 318 316 315 313 311 311 309 307 304 297
250 246 244 240 242 246 251 257 263 267 269 273 277 279 284 288 291 296 299 300 306 308 310 311 312 313 314 314 315 318 320 321 320 319 319 317 316 314 314 314 309 303 297
247 243 238 233 239 246 252 257 261 264 267 270 274 280 285 288 291 294 300 302 306 308 310 311 311 312 315 315 317 318 319 320 321 323 324 321 319 317 318 317 310 305 299
235 232 234 237 243 248 252 256 259 263 267 272 276 282 285 287 292 297 300 304 307 310 311 312 313 314 316 317 319 319 320 320 323 324 325 323 323 319 320 317 312 307 302
Height
10838 10837 10839 10839 10838 10837 10835 10832 10830 10829 10829 10826 10823 10817 10814 10810 10806 10802 10799 10797 10794 10792 10790 10787 10786 10784 10782 10782 10781 10782 10782 10784 10786 10788 10789 10791 10795 10798 10799 10801 10803 10806 10808
10831 10831 10833 10833 10831 10830 10828 10825 10824 10823 10822 10819 10814 10810 10807 10802 10799 10796 10794 10793 10791 10789 10788 10785 10783 10781 10779 10778 10776 10775 10776 10775 10776 10778 10779 10780 10782 10784 10788 10791 10794 10796 10797
10824 10825 10825 10825 10824 10822 10818 10819 10817 10817 10814 10811 10806 10801 10798 10795 10793 10791 10790 10789 10788 10786 10783 10781 10778 10777 10775 10774 10772 10771 10770 10770 10768 10768 10769 10770 10771 10773 10776 10778 10780 10785 10788
10816 10817 10817 10817 10816 10814 10812 10809 10809 10808 10804 10802 10798 10795 10792 10789 10788 10788 10786 10785 10783 10780 10778 10776 10773 10771 10770 10769 10767 10766 10765 10764 10762 10762 10762 10762 10762 10764 10764 10766 10768 10771 10776
10807 10810 10809 10810 10808 10806 10804 10802 10802 10801 10797 10793 10790 10788 10785 10784 10784 10783 10782 10780 10777 10776 10773 10771 10768 10766 10765 10763 10762 10760 10760 10759 10757 10757 10756 10756 10756 10756 10757 10757 10757 10759 10763
10800 10803 10803 10801 10799 10798 10796 10796 10794 10794 10791 10786 10784 10782 10781 10780 10779 10778 10777 10775 10773 10771 10768 10766 10763 10762 10760 10758 10756 10755 10754 10753 10752 10751 10751 10750 10750 10749 10748 10750 10749 10749 10751
10794 10795 10796 10793 10792 10789 10788 10788 10787 10785 10782 10779 10777 10776 10776 10775 10774 10773 10770 10769 10767 10766 10764 10761 10759 10758 10756 10753 10753 10752 10749 10748 10747 10746 10745 10745 10744 10743 10743 10742 10742 10742 10741
10786 10787 10786 10784 10783 10782 10781 10781 10779 10777 10775 10772 10772 10771 10770 10770 10769 10767 10765 10762 10761 10760 10758 10756 10755 10753 10751 10749 10748 10746 10743 10741 10740 10739 10739 10738 10737 10736 10736 10737 10736 10734 10733
10776 10777 10776 10776 10775 10774 10772 10772 10770 10769 10768 10767 10766 10766 10764 10764 10763 10761 10759 10758 10757 10755 10754 10751 10750 10748 10745 10744 10741 10740 10738 10735 10733 10732 10731 10731 10730 10730 10729 10728 10728 10727 10727
10768 10768 10768 10767 10767 10766 10765 10763 10762 10762 10760 10761 10760 10759 10758 10757 10757 10756 10753 10752 10751 10749 10747 10746 10744 10742 10740 10738 10735 10733 10731 10728 10726 10724 10723 10722 10721 10721 10719 10719 10718 10718 10717
10760 10759 10760 10759 10759 10758 10756 10755 10755 10754 10754 10754 10754 10753 10752 10752 10751 10749 10749 10747 10745 10743 10742 10739 10737 10735 10732 10730 10728 10726 10723 10720 10718 10716 10715 10713 10712 10710 10710 10709 10707 10706 10707
10752 10752 10751 10751 10751 10750 10749 10748 10747 10747 10748 10748 10746 10745 10746 10746 10745 10744 10742 10741 10739 10737 10735 10732 10730 10727 10725 10723 10721 10717 10714 10711 10709 10707 10705 10703 10701 10700 10699 10698 10696 10694 10693
10744 10743 10743 10742 10743 10741 10741 10740 10740 10741 10741 10740 10739 10739 10740 10740 10739 10738 10736 10734 10732 10730 10727 10724 10721 10719 10717 10713 10711 10708 10704 10701 10698 10694 10692 10690 10689 10687 10685 10683 10681 10680 10679
10734 10734 10734 10733 10733 10733 10733 10732 10732 10734 10733 10732 10733 10733 10733 10733 10732 10731 10729 10727 10724 10721 10719 10715 10713 10711 10708 10705 10701 10697 10693 10690 10685 10682 10678 10674 10672 10669 10667 10665 10665 10663 10662
10725 10724 10725 10725 10726 10725 10725 10724 10725 10726 10725 10725 10726 10725 10726 10726 10725 10724 10721 10718 10716 10713 10709 10707 10704 10701 10698 10695 10691 10686 10682 10676 10672 10667 10662 10659 10656 10652 10648 10646 10643 10642 10641
10715 10716 10716 10716 10717 10717 10717 10716 10716 10716 10717 10718 10717 10717 10718 10718 10717 10715 10713 10710 10707 10704 10701 10697 10693 10690 10686 10682 10679 10674 10669 10662 10658 10654 10650 10643 10637 10632 10628 10623 10619 10616 10613
10707 10708 10708 10707 10708 10708 10708 10707 10707 10708 10709 10709 10709 10710 10710 10709 10708 10706 10704 10702 10698 10694 10690 10687 10683 10679 10674 10669 10664 10659 10653 10649 10644 10639 10634 10627 10619 10611 10604 10598 10593 10587 10583
10699 10699 10698 10699 10700 10698 10698 10698 10699 10700 10700 10701 10701 10701 10701 10700 10698 10697 10694 10691 10688 10684 10680 10676 10672 10667 10663 10658 10652 10646 10641 10634 10628 10620 10611 10603 10594 10585 10576 10567 10558 10552 10546
10688 10689 10689 10690 10690 10689 10689 10689 10691 10691 10691 10692 10692 10692 10691 10689 10688 10686 10683 10679 10676 10673 10669 10665 10661 10656 10651 10645 10639 10631 10623 10613 10606 10596 10586 10576 10565 10555 10546 10536 10525 10515 10504
10676 10678 10679 10680 10681 10680 10681 10681 10681 10682 10682 10682 10682 10682 10680 10679 10677 10674 10671 10668 10665 10662 10658 10654 10648 10644 10641 10634 10625 10616 10607 10598 10590 10576 10561 10549 10537 10525 10512 10500 10488 10474 10460
10665 10667 10668 10670 10671 10671 10672 10672 10672 10673 10673 10673 10672 10671 10669 10668 10666 10663 10660 10657 10653 10650 10646 10641 10635 10628 10624 10620 10613 10602 10591 10579 10572 10556 10539 10523 10512 10496 10477 10465 10449 10431 10419
10655 10654 10655 10658 10661 10660 10661 10662 10663 10663 10663 10663 10663 10662 10660 10658 10655 10652 10650 10646 10642 10638 10633 10628 10622 10613 10605 10600 10594 10587 10580 10566 10555 10539 10518 10496 10480 10464 10440 10420 10398 10380 10363
10644 10642 10644 10648 10650 10650 10651 10652 10653 10653 10654 10653 10652 10652 10650 10647 10644 10641 10638 10633 10629 10624 10618 10612 10605 10598 10588 10579 10571 10564 10558 10550 10542 10525 10504 10475 10451 10428 10401 10375 10353 10330 10305
10630 10631 10634 10638 10640 10640 10642 10643 10644 10644 10644 10643 10642 10641 10638 10636 10633 10629 10625 10620 10615 10609 10602 10594 10587 10579 10571 10560 10547 10535 10523 10514 10510 10506 10481 10445 10414 10382 10363 10333 10309 10281 10256
10622 10623 10627 10628 10630 10631 10632 10634 10634 10634 10633 10632 10631 10629 10627 10624 10621 10616 10611 10605 10599 10593 10585 10577 10569 10560 10549 10537 10526 10513 10497 10483 10466 10452 10451 10419 10380 10328 10312 10292 10263 10237 10219
10612 10615 10617 10618 10618 10620 10622 10623 10622 10623 10622 10620 10619 10617 10614 10611 10607 10602 10596 10590 10584 10576 10567 10558 10549 10539 10528 10515 10501 10486 10471 10455 10436 10415 10398 10375 10345 10301 10278 10256 10225 10204 10189